Preview of NWS' New Version of Forecast
This preview is not operational and should not be used for support decisions.

Regional Weather Roundup (RWR)

Issued by National Weather Service (NWS)

                            
000
ASUS43 KLSX 261707
RWRMO 

WEATHER SUMMARY FOR MISSOURI
NATIONAL WEATHER SERVICE SPRINGFIELD MO
1200 PM CDT TUE MAR 26 2019

NOTE: "FAIR" INDICATES FEW OR NO CLOUDS BELOW 12,000 FEET WITH NO
       SIGNIFICANT WEATHER AND/OR OBSTRUCTIONS TO VISIBILITY.
       CURRENT SKY AND/OR WEATHER CONDITIONS ARE NOT AVAILABLE FOR
       CHILLICOTHE AND FARMINGTON.

MOZ001>031-035>038-043-044-053-054-261800-
...NORTHERN AND WESTERN MISSOURI...
  
CITY           SKY/WX    TMP DP  RH WIND       PRES   REMARKS
KANSAS CTY INT PTSUNNY   54  38  54 SE7       30.40S                  
KANSAS C DTWN  SUNNY     56  38  50 SE5       30.40F                  
LEE'S SUMMIT   SUNNY     53  37  54 SW7       30.41S                  
ST JOSEPH      PTSUNNY   52  42  69 SW10      30.41S                  
CHILLICOTHE      N/A     50  33  52 SE8       30.44F                  
KIRKSVILLE     SUNNY     47  23  38 SE6       30.45S                  
     
$$
MOZ066>068-077>081-088>096-101>105-261800-
...SOUTHWEST MISSOURI...
  
CITY           SKY/WX    TMP DP  RH WIND       PRES   REMARKS
SPRINGFIELD    SUNNY     55  37  50 VRB5      30.39R                  
JOPLIN         SUNNY     57  40  52 NW6       30.41S                  
BRANSON        MOSUNNY   54  37  54 NW8       30.40S                  
               
$$
MOZ032>034-039>042-045>050-055>058-069>072-261800-
...CENTRAL MISSOURI...  
  
CITY           SKY/WX    TMP DP  RH WIND       PRES   REMARKS
COLUMBIA       SUNNY     50  24  36 NE9       30.43S                  
JEFFERSON CITY SUNNY     51  25  36 N8        30.43F                  
ROLLA          SUNNY     50  27  40 N8        30.41S                  
SEDALIA        SUNNY     54  35  48 MISG      30.43S                  
WHITEMAN AFB   MOSUNNY   53  35  50 CALM      30.38S                  
WARRENSBURG    CLOUDY    54  34  47 E6        30.42F                  
OSAGE BEACH    SUNNY     51  32  48 E5        30.43S                  
               
$$
MOZ051-052-059>065-261800-
...EAST CENTRAL MISSOURI...
  
CITY           SKY/WX    TMP DP  RH WIND       PRES   REMARKS
ST LOUIS INTL  MOSUNNY   46  27  47 VRB3      30.44S                  
SPIRIT OF STL  SUNNY     47  28  47 CALM      30.43F                  
ST CHARLES     SUNNY     47  29  49 SE6       30.45S                  
                   
$$
MOZ072>076-082>087-097>100-106>115-261800-
...SOUTH CENTRAL AND SOUTHEAST MISSOURI...
  
CITY           SKY/WX    TMP DP  RH WIND       PRES   REMARKS
CAPE GIRARDEAU FAIR      51  27  39 NE10      30.40S                  
FARMINGTON     MOSUNNY   47  27  45 NE5       30.41S                  
POPLAR BLUFF   FAIR      50  33  52 NE8       30.40S                  
WEST PLAINS    SUNNY     54  36  50 NE12      30.38F                  
                                       
$$